Accueil
METAR-TAF:

METAR-TAF

Aéroports :

Vannes, France

Aéroport de Vannes

latitude: 47-43-19N, longitude: 2-43-41W, altitude: 130 m

Observation

Le bulletin a été fait il y a 25 minutes, à 03:30 UTC
Vent 10 kt de est/sud-est, variant entre est et sud/sud-est
Température 8°C
Humidité 93%
Pression 959 hPa
Visibilité: 9000 m

METAR: LFRV 110330Z AUTO 11010KT 090V160 9000 SCT016/// BKN031/// BKN044/// ///TCU 08/07 Q0959

Heure: 04:55 (03:55 UTC)


TAF: absent

Observations et prévisions météorologiques de plus de 4000 aéroports (messages METAR et TAF).

Les stations disponibles sont représentées par des disques jaunes et rouges sur la carte.

Passer la souris dessus pour voir le nom de la station.

Cliquer dessus pour voir les observations et prévisions météorologiques.

Pour changer de carte: cliquez sur les boutons verts avec une croix noire pour zoomer, sur le bouton vert avec un tiret pour effectuer un zoom arrière, ou sur les flèches vertes pour les cartes adjacentes.


METAR-TAF: